Regional Weather Roundup
Issued by NWS

Home | Current Version | Previous Version | Graphics & Text | Print | Product List | Glossary On
Versions: 1 2 3 4 5 6 7 8 9 10 11 12 13 14 15 16 17 18 19 20 21 22 23 24 25 26 27 28 29 30 31 32 33 34 35 36 37 38 39 40 41 42 43 44 45 46 47 48 49 50
000
ASUS45 KSLC 132310
RWRUT

UTAH REGIONAL WEATHER ROUNDUP
NATIONAL WEATHER SERVICE SALT LAKE CITY UT
400 PM MST SAT FEB 13 2016

UTZ001>011-023>025-140000-

NORTHERN UTAH

CITY           SKY/WX    TMP DP  RH WIND       PRES   REMARKS
BRIGHAM CITY   CLOUDY    30  26  83 CALM      30.32S
HILL AFB       MOSUNNY   34  34 100 W5        30.28S FOG     WCI  30
LOGAN          SUNNY     31  27  85 S3        30.28R FOG
OGDEN          SUNNY     32  28  85 NW7       30.28S FOG     WCI  26
PROVO AIRPORT  FOG       28  25  86 CALM      30.28F VSB 1/2
SALT LAKE CITY MOSUNNY   36  29  75 CALM      30.27F HAZE
VERNAL         CLOUDY    34  23  64 CALM      30.18S HAZE
WENDOVER       MOSUNNY   36  28  75 SE5       30.28S WCI  32
HEBER CITY     SUNNY     41  23  48 S3        30.20F
WEST JORDAN    SUNNY     36  30  80 CALM      30.27F

$$

UTZ012>022-026-027-140000-

SOUTHERN/CENTRAL UTAH

CITY           SKY/WX    TMP DP  RH WIND       PRES   REMARKS
BLANDING       SUNNY     48  27  43 CALM      30.25S
BRYCE CANYON   MOSUNNY   47  20  34 NW14      30.26S
CEDAR CITY     PTSUNNY   48  28  46 CALM      30.21S
DELTA          MOSUNNY   26  23  90 CALM      30.28F
HANKSVILLE     MOSUNNY   52  32  46 CALM      30.21S
MILFORD        PTSUNNY   29  23  78 N9        30.25F WCI  20
MOAB/CYNLANDS  PTSUNNY   48  36  63 N5        30.17F
PRICE          MOSUNNY   47  28  47 CALM      30.19S
ST GEORGE      CLEAR     64  28  25 CALM      30.12F
KANAB          PTSUNNY   70   9   9 SW5       30.16F

$$

REGIONAL REPORTS     COLORADO/ARIZONA

CITY           SKY/WX    TMP DP  RH WIND       PRES   REMARKS
CRAIG, CO      CLOUDY    35  24  64 CALM      30.17F
GRAND JUNCTION CLOUDY    42  34  73 NW5       30.19S
RIFLE          CLOUDY    40  24  53 NE5       30.19R
MONTROSE       CLOUDY    47  29  49 N7        30.20R
CORTEZ         SUNNY     56  25  30 W8        30.18R
PAGE, AZ       PTSUNNY   57  31  37 VRB3      30.13F
GRAND CANYON   MOSUNNY   63   0   8 N5        30.22S
KINGMAN        SUNNY     75  17  11 N9        30.11R
FLAGSTAFF      SUNNY     59  16  18 S6        30.22F

$$

REGIONAL REPORTS    NEVADA/IDAHO/WYOMING

CITY           SKY/WX    TMP DP  RH WIND       PRES   REMARKS
LAS VEGAS, NV  MOSUNNY   75  21  13 CALM      30.06S
ELY            SUNNY     47  22  37 CALM      30.26F
ELKO           SUNNY     40  27  59 W5        30.27F
POCATELLO, ID  SUNNY     42  31  64 SW20      30.27R
BURLEY         LGT RAIN  46  31  55 W12G22    30.24S
EVANSTON, WY   SUNNY     39  24  55 SW23      30.20F WCI  28
ROCK SPRINGS   SUNNY     42  27  55 W22       30.12R
KEMMERER       SUNNY     36  27  69 W20       30.20R WCI  25

$$



USA.gov is the U.S. government's official web portal to all federal, state and local government web resources and services.